{"data":{"norad_id":59930,"epoch":"2026-09-21T09:27:31.334688Z","epoch_age_seconds":97221,"freshness":"FRESH","line1":"1 59930U 24106J   26264.39411267  .00000769  00000+0  37465-4 0  9992","line2":"2 59930  43.0022 307.2565 0001317 264.7932  95.2769 15.27580185130455","mean_motion":15.27580185,"eccentricity":0.0001317,"inclination_deg":43.0022,"raan_deg":307.2565,"arg_perigee_deg":264.7932,"mean_anomaly_deg":95.2769,"bstar":3.7465e-5,"rev_number":13045,"period_min":94.266737297329,"perigee_km":482.14492394726,"apogee_km":483.95216021905,"semimajor_km":6861.1855420832,"source":"CELESTRAK","updated_at":"2026-09-22T09:00:49.112290Z"}}